Find Starlink 11476

NORAD ID: 62228 Int'l Des: 2024-231 Owner: SPXS Country: US Constellation: starlink operational
LEOCIRCULAR

Live-Position

3D-Globus wird geladen...

Über Starlink 11476

Beschreibung wird geladen...

Nächste Überflüge

Passes for default location (London). Set your location on the main map for personalized predictions.

Höhenverlauf

Loading altitude history...

Zweizeiliger Elementsatz

1 62228U 24231L 26126.48665814 .00179292 00000-0 14533-2 0 9999
2 62228 53.1563 176.0166 0000690 105.2455 254.8639 15.69704197 82500
Epoch: 6. Mai 2026 • Age: 31 hours

Aktueller Status

Höhe 359.1 km
Geschwindigkeit 7.70 km/s
Subsatellitenpunkt 0.74°N, 161.54°W
Startdatum 5. Dez. 2024
Alter 1.4 years
Typ internet

Technische Details

Klassifizierung Payload
Masse 960.00 kg
Trockenmasse 910.00 kg
Gesamtmasse 960.00 kg
Länge 0.30 m
Durchmesser 4.10 m
Spannweite 29.00 m
Form Box + pan
Hersteller SPXS
Bus-Typ Starlink V2MD
Phasenstatus In Orbit
Besitzer/Staat SPXS/US

Most Searched